CW1988 Weather Reports


Display with metric or nautical units.
time (UTC)temp
F
wind
direction
speed
MPH
gust
MPH
rain 1hr
in
rain 24hr
in
rain mn
in
humidity
%
barometer
mb
20260831194107 87 145 0.0 0.0 0.00 0.32 0.32 66 1013.1
20260831193603 87 144 0.0 0.0 0.00 0.32 0.32 65 1012.9
20260831193103 88 144 0.0 1.0 0.00 0.32 0.32 65 1013.2
20260831192558 88 145 0.0 0.0 0.00 0.32 0.32 65 1013.3
20260831192053 88 144 0.0 0.0 0.00 0.32 0.32 65 1013.2
20260831191549 89 145 0.0 0.0 0.00 0.32 0.32 62 1013.2
20260831191045 90 142 0.0 0.0 0.00 0.32 0.32 63 1013.3
20260831190540 89 137 0.0 0.0 0.00 0.32 0.32 64 1013.3
20260831190038 89 144 0.0 0.0 0.00 0.32 0.32 62 1013.3
20260831185535 89 144 0.0 0.0 0.00 0.32 0.32 61 1013.1
20260831185030 89 144 0.0 0.0 0.00 0.32 0.32 62 1013.2
20260831184524 88 144 0.0 0.0 0.00 0.32 0.32 61 1013.3
20260831184020 88 144 1.0 2.0 0.00 0.32 0.32 62 1013.3
20260831183519 88 143 0.0 0.0 0.00 0.32 0.32 62 1013.4
20260831183018 88 147 1.0 2.0 0.00 0.32 0.32 68 1013.2
20260831182513 88 142 0.0 0.0 0.00 0.32 0.32 65 1013.2
20260831182009 88 148 0.0 0.0 0.00 0.32 0.32 66 1013.3
20260831181503 88 143 0.0 0.0 0.00 0.32 0.32 65 1013.4
20260831180958 87 140 0.0 0.0 0.00 0.32 0.32 68 1013.2
20260831180453 87 139 0.0 0.0 0.00 0.32 0.32 68 1013.1
20260831175952 86 147 0.0 0.0 0.00 0.32 0.32 67 1013.3
20260831175449 86 145 0.0 0.0 0.00 0.32 0.32 67 1013.4
20260831174944 86 140 2.0 2.0 0.00 0.32 0.32 65 1013.5
20260831174440 86 167 0.0 1.0 0.00 0.32 0.32 67 1013.6
20260831173939 86 141 0.0 0.0 0.00 0.32 0.32 66 1013.7
20260831173438 86 145 0.0 0.0 0.00 0.32 0.32 68 1013.7
20260831172934 86 149 0.0 1.0 0.00 0.32 0.32 66 1013.7
20260831172430 86 149 0.0 0.0 0.00 0.32 0.32 66 1013.6
20260831171929 85 146 1.0 2.0 0.00 0.32 0.32 68 1013.5
20260831171425 85 150 0.0 0.0 0.00 0.32 0.32 64 1013.5
20260831170922 86 151 1.0 2.0 0.00 0.32 0.32 66 1013.8
20260831170418 85 151 0.0 0.0 0.00 0.32 0.32 67 1013.8
20260831165914 86 146 1.0 2.0 0.00 0.32 0.32 66 1013.7
20260831165410 86 129 0.0 0.0 0.00 0.32 0.32 67 1013.7
20260831164906 86 140 0.0 1.0 0.00 0.32 0.32 64 1013.7
20260831164402 86 148 0.0 0.0 0.00 0.32 0.32 67 1013.9
20260831163857 85 135 0.0 0.0 0.00 0.32 0.32 67 1013.9
20260831163353 84 147 0.0 0.0 0.00 0.32 0.32 67 1014.0
20260831162851 85 134 2.0 3.0 0.00 0.32 0.32 67 1013.7
20260831162348 85 154 0.0 0.0 0.00 0.32 0.32 69 1013.7
20260831161846 84 136 0.0 0.0 0.00 0.32 0.32 69 1013.8
20260831161343 84 149 2.0 3.0 0.00 0.32 0.32 67 1013.9
20260831160838 83 157 0.0 0.0 0.00 0.32 0.32 68 1013.7
20260831160337 83 128 1.0 1.0 0.00 0.32 0.32 68 1013.9
20260831155832 82 140 0.0 0.0 0.00 0.32 0.32 69 1013.8
20260831155332 82 150 0.0 1.0 0.00 0.32 0.32 69 1013.9
20260831154828 82 147 0.0 1.0 0.00 0.32 0.32 70 1013.8
20260831154325 82 203 1.0 3.0 0.00 0.32 0.32 71 1014.0
20260831153823 81 135 0.0 0.0 0.00 0.32 0.32 73 1014.1
20260831153319 80 123 0.0 0.0 0.00 0.32 0.32 74 1014.2
20260831152815 79 130 0.0 0.0 0.00 0.32 0.32 76 1014.2
20260831152310 80 148 0.0 0.0 0.00 0.32 0.32 75 1014.0
20260831151805 80 145 0.0 0.0 0.00 0.32 0.32 75 1014.1
20260831151304 79 125 0.0 0.0 0.00 0.32 0.32 73 1014.4
20260831150759 79 132 0.0 1.0 0.00 0.32 0.32 74 1014.0
20260831150255 77 145 1.0 1.0 0.00 0.32 0.32 76 1014.2
20260831145754 77 144 0.0 0.0 0.00 0.32 0.32 78 1014.4
20260831145250 77 144 0.0 0.0 0.00 0.32 0.32 78 1014.2
20260831144746 76 133 0.0 0.0 0.00 0.32 0.32 78 1014.1
20260831144242 76 132 0.0 1.0 0.00 0.32 0.32 79 1014.1
20260831143742 76 137 0.0 1.0 0.00 0.32 0.32 79 1014.2
20260831143237 76 138 0.0 0.0 0.00 0.32 0.32 79 1014.0
20260831142733 76 145 0.0 0.0 0.00 0.32 0.32 80 1014.1
20260831142228 75 106 1.0 2.0 0.00 0.32 0.32 79 1014.0
20260831141727 75 132 0.0 0.0 0.00 0.32 0.32 80 1014.0
20260831141222 75 137 0.0 0.0 0.00 0.32 0.32 80 1013.9
20260831140721 75 128 0.0 0.0 0.00 0.32 0.32 80 1014.0
20260831140216 75 140 0.0 0.0 0.00 0.32 0.32 80 1014.1
20260831135714 74 131 0.0 0.0 0.00 0.32 0.32 81 1014.2
20260831135210 74 134 0.0 0.0 0.00 0.32 0.32 81 1014.1
20260831134706 73 133 0.0 0.0 0.00 0.32 0.32 82 1014.1
20260831134202 73 125 0.0 1.0 0.00 0.32 0.32 83 1014.3
20260831133700 73 134 0.0 0.0 0.00 0.32 0.32 83 1014.0
20260831133155 73 128 0.0 0.0 0.00 0.32 0.32 84 1014.2
20260831132651 73 116 0.0 0.0 0.00 0.32 0.32 84 1014.0
20260831132150 73 134 0.0 0.0 0.00 0.32 0.32 85 1014.0
20260831131645 72 135 0.0 0.0 0.00 0.32 0.32 85 1014.0
20260831131142 72 136 0.0 1.0 0.00 0.32 0.32 84 1013.9
20260831130636 72 132 0.0 0.0 0.00 0.32 0.32 85 1013.7
20260831130132 72 131 0.0 0.0 0.00 0.32 0.32 85 1013.8
20260831125630 72 127 0.0 1.0 0.00 0.32 0.32 85 1013.9
20260831125126 72 131 0.0 1.0 0.00 0.32 0.32 85 1013.8
20260831124622 72 129 1.0 1.0 0.00 0.32 0.32 86 1013.7
20260831124118 71 137 0.0 0.0 0.00 0.32 0.32 87 1014.0
20260831123618 71 129 1.0 2.0 0.00 0.32 0.32 88 1014.0
20260831123117 71 132 1.0 1.0 0.00 0.32 0.32 88 1014.1
20260831122617 71 136 0.0 0.0 0.00 0.32 0.32 88 1013.9
20260831122113 71 138 0.0 0.0 0.00 0.32 0.32 87 1014.0
20260831121612 72 145 0.0 0.0 0.00 0.32 0.32 87 1013.8
20260831121109 72 143 0.0 1.0 0.00 0.32 0.32 87 1013.9
20260831120608 72 136 1.0 1.0 0.00 0.32 0.32 87 1013.7
20260831120104 71 139 2.0 3.0 0.00 0.32 0.32 88 1013.8
20260831115559 71 133 0.0 1.0 0.00 0.32 0.32 90 1013.9
20260831115055 71 129 0.0 1.0 0.00 0.32 0.32 90 1013.8
20260831114553 70 127 0.0 0.0 0.00 0.32 0.32 91 1013.9
20260831114048 70 127 0.0 0.0 0.00 0.32 0.32 92 1014.0
20260831113548 70 129 0.0 0.0 0.00 0.32 0.32 93 1014.1
20260831113044 70 140 0.0 0.0 0.00 0.32 0.32 93 1013.9
20260831112543 70 129 0.0 0.0 0.00 0.32 0.32 94 1014.0
20260831112038 70 128 0.0 0.0 0.00 0.32 0.32 94 1014.0
20260831111534 70 130 0.0 0.0 0.05 0.32 0.32 94 1014.0
20260831111029 70 125 0.0 0.0 0.05 0.32 0.32 94 1014.1
20260831110525 70 130 0.0 0.0 0.00 0.31 0.31 95 1014.1
20260831110019 70 133 0.0 0.0 0.00 0.31 0.31 95 1014.1
20260831105513 70 128 0.0 0.0 0.00 0.31 0.31 95 1014.2
20260831105008 70 138 0.0 0.0 0.00 0.31 0.31 95 1014.0
20260831104505 70 142 0.0 0.0 0.00 0.31 0.31 95 1014.3
20260831104000 70 148 0.0 0.0 0.00 0.31 0.31 95 1014.3
20260831103500 70 126 0.0 0.0 0.00 0.31 0.31 95 1014.1
20260831102956 69 128 0.0 0.0 0.07 0.31 0.31 95 1014.3
20260831102450 69 130 0.0 0.0 0.19 0.31 0.31 96 1014.4
20260831101945 69 133 0.0 0.0 0.17 0.30 0.30 96 1014.8
20260831101440 69 135 0.0 0.0 0.47 0.28 0.28 96 1014.8
20260831100936 70 136 0.0 0.0 0.66 0.27 0.27 96 1014.7
20260831100432 69 125 0.0 1.0 0.35 0.20 0.20 96 1015.0
20260831095927 69 130 0.0 0.0 0.50 0.16 0.16 96 1015.1
20260831095426 70 127 0.0 0.0 0.50 0.14 0.14 96 1015.2
20260831094921 70 129 0.0 0.0 0.17 0.08 0.08 96 1015.3
20260831094417 70 129 0.0 0.0 0.05 0.06 0.06 96 1015.3
20260831093913 70 129 0.0 0.0 0.00 0.05 0.05 95 1014.8
20260831093408 70 129 0.0 0.0 0.00 0.05 0.05 95 1014.5
20260831092905 70 129 0.0 0.0 0.31 0.05 0.05 94 1014.6
20260831092400 71 130 0.0 0.0 0.31 0.05 0.05 94 1014.5
20260831091855 70 128 0.0 0.0 0.00 0.00 0.00 92 1014.7
20260831091350 70 127 1.0 1.0 0.00 0.00 0.00 93 1014.6
20260831090846 70 128 0.0 0.0 0.00 0.00 0.00 93 1014.6
20260831090342 69 129 0.0 0.0 0.00 0.00 0.00 94 1014.6
20260831085839 69 129 0.0 0.0 0.00 0.00 0.00 94 1014.7
20260831085338 69 129 0.0 0.0 0.00 0.00 0.00 95 1014.8
20260831084838 69 129 0.0 0.0 0.00 0.00 0.00 95 1014.6
20260831084335 69 129 0.0 0.0 0.00 0.00 0.00 95 1014.8
20260831083831 69 129 0.0 0.0 0.00 0.00 0.00 95 1014.8
20260831083326 69 129 0.0 0.0 0.00 0.00 0.00 95 1014.9
20260831082825 69 129 0.0 0.0 0.00 0.00 0.00 95 1014.8
20260831082320 68 129 0.0 0.0 0.00 0.00 0.00 95 1014.8
20260831081815 68 129 0.0 0.0 0.00 0.00 0.00 95 1014.7
20260831081311 68 129 0.0 0.0 0.00 0.00 0.00 95 1014.6
20260831080806 68 129 0.0 0.0 0.00 0.00 0.00 95 1014.6
20260831080301 68 129 0.0 0.0 0.00 0.00 0.00 95 1014.5
20260831075757 68 129 0.0 0.0 0.00 0.00 0.00 95 1014.5
20260831075252 68 129 0.0 0.0 0.00 0.00 0.00 95 1014.6
20260831074752 68 129 0.0 0.0 0.00 0.00 0.00 95 1014.8
20260831074245 68 129 0.0 0.0 0.00 0.00 0.00 95 1014.8
20260831073742 68 129 0.0 0.0 0.00 0.00 0.00 94 1014.9
20260831073240 68 129 0.0 0.0 0.00 0.00 0.00 94 1015.1
20260831072736 68 129 0.0 0.0 0.00 0.00 0.00 94 1015.2
20260831072232 68 129 0.0 0.0 0.00 0.00 0.00 94 1015.2
20260831071732 69 129 0.0 0.0 0.00 0.00 0.00 94 1015.4
20260831071227 69 129 0.0 0.0 0.00 0.00 0.00 94 1015.3
20260831070726 69 129 0.0 0.0 0.00 0.00 0.00 94 1015.3
20260831070221 69 129 0.0 0.0 0.00 0.00 0.00 94 1015.4
20260831065720 69 129 0.0 0.0 0.00 0.00 0.00 94 1015.8
20260831065218 69 129 0.0 0.0 0.00 0.00 0.00 94 1016.0
20260831064713 69 129 0.0 0.0 0.00 0.00 0.00 94 1015.8
20260831064209 69 129 0.0 0.0 0.00 0.00 0.00 94 1016.1
20260831063705 69 129 0.0 0.0 0.00 0.00 0.00 94 1016.0
20260831063200 69 129 0.0 0.0 0.00 0.00 0.00 94 1016.1
20260831062659 69 129 0.0 0.0 0.00 0.00 0.00 94 1016.2
20260831062159 69 129 0.0 0.0 0.00 0.00 0.00 93 1016.2
20260831061657 69 129 0.0 0.0 0.00 0.00 0.00 93 1016.3
20260831061153 69 129 0.0 0.0 0.00 0.00 0.00 93 1016.3
20260831060649 69 129 0.0 0.0 0.00 0.00 0.00 93 1016.2
20260831060149 70 129 0.0 0.0 0.00 0.00 0.00 92 1016.2
20260831055648 70 129 0.0 0.0 0.00 0.00 0.00 92 1016.1
20260831055143 70 129 0.0 0.0 0.00 0.00 0.00 92 1016.1
20260831054644 70 129 0.0 0.0 0.00 0.00 0.00 92 1016.3
20260831054143 70 129 0.0 0.0 0.00 0.00 0.00 92 1016.2
20260831053638 70 129 0.0 0.0 0.00 0.00 0.00 92 1016.1
20260831053137 70 129 0.0 0.0 0.00 0.00 0.00 92 1016.2
20260831052636 70 129 0.0 0.0 0.00 0.00 0.00 91 1015.8
20260831052136 71 129 0.0 0.0 0.00 0.00 0.00 91 1016.0
20260831051634 71 129 0.0 0.0 0.00 0.00 0.00 91 1016.0
20260831051127 71 129 0.0 0.0 0.00 0.00 0.00 91 1015.8
20260831050621 71 129 0.0 0.0 0.00 0.00 0.00 91 1015.8
20260831050115 71 129 0.0 0.0 0.00 0.00 0.00 91 1015.8
20260831045614 71 129 0.0 0.0 0.00 0.00 0.00 91 1015.8
20260831045109 71 129 0.0 0.0 0.00 0.00 0.00 91 1016.1
20260831044604 71 129 0.0 0.0 0.00 0.00 0.00 90 1015.8
20260831044100 71 129 0.0 0.0 0.00 0.00 0.00 90 1016.0
20260831043555 71 129 0.0 0.0 0.00 0.00 0.00 90 1016.2
20260831043050 71 129 0.0 0.0 0.00 0.00 0.00 90 1015.8
20260831042549 71 128 0.0 0.0 0.00 0.00 0.00 89 1016.0
20260831042045 71 128 0.0 0.0 0.00 0.00 0.00 89 1015.7
20260831041540 71 128 0.0 0.0 0.00 0.00 0.00 89 1016.1
20260831041039 71 129 0.0 0.0 0.00 0.00 0.00 89 1016.0
20260831040534 72 128 0.0 0.0 0.00 0.00 0.00 89 1015.4
20260831040033 72 128 0.0 0.0 0.00 0.00 0.00 88 1015.0
20260831035531 72 128 0.0 0.0 0.00 0.14 0.14 88 1015.2
20260831035026 72 128 0.0 0.0 0.00 0.14 0.14 88 1015.5
20260831034521 72 128 0.0 0.0 0.00 0.14 0.14 88 1015.6
20260831034016 72 129 0.0 0.0 0.00 0.14 0.14 87 1015.2
20260831033512 72 129 0.0 0.0 0.00 0.14 0.14 87 1015.2
20260831033007 72 129 0.0 0.0 0.00 0.14 0.14 87 1015.1
20260831032506 72 129 0.0 0.0 0.00 0.14 0.14 87 1015.2
20260831032002 72 129 0.0 0.0 0.00 0.14 0.14 87 1015.4
20260831031501 73 129 0.0 0.0 0.00 0.14 0.14 86 1015.3
20260831031001 73 129 0.0 0.0 0.00 0.14 0.14 86 1015.3
20260831030500 73 129 0.0 0.0 0.00 0.14 0.14 86 1015.3
20260831025958 72 128 0.0 1.0 0.00 0.14 0.14 86 1015.2
20260831025457 73 129 0.0 0.0 0.00 0.14 0.14 87 1015.1
20260831024953 73 128 0.0 0.0 0.00 0.14 0.14 87 1015.3
20260831024448 73 129 0.0 0.0 0.00 0.14 0.14 87 1015.4
20260831023942 73 128 0.0 0.0 0.00 0.14 0.14 87 1015.6
20260831023440 73 130 0.0 0.0 0.00 0.14 0.14 86 1015.5
20260831022936 73 128 0.0 0.0 0.00 0.14 0.14 86 1015.4
20260831022434 72 137 1.0 1.0 0.00 0.14 0.14 87 1015.5
20260831021929 73 134 0.0 0.0 0.00 0.14 0.14 87 1015.5
20260831021423 73 141 0.0 0.0 0.00 0.14 0.14 87 1015.6
20260831020919 73 140 0.0 0.0 0.00 0.14 0.14 86 1015.5
20260831020419 72 142 0.0 0.0 0.00 0.14 0.14 87 1015.5
20260831015914 72 130 0.0 0.0 0.00 0.14 0.14 87 1015.2
20260831015410 72 137 0.0 0.0 0.00 0.14 0.14 88 1015.4
20260831014904 72 137 0.0 0.0 0.00 0.14 0.14 88 1015.7
20260831014359 72 137 0.0 0.0 0.00 0.14 0.14 88 1015.6
20260831013855 72 146 0.0 0.0 0.00 0.14 0.14 89 1015.5
20260831013350 72 144 0.0 0.0 0.00 0.14 0.14 89 1015.2
20260831012849 72 140 0.0 1.0 0.00 0.14 0.14 89 1015.4
20260831012345 72 142 0.0 0.0 0.00 0.14 0.14 89 1015.6
20260831011845 72 141 0.0 0.0 0.00 0.14 0.14 89 1015.5
20260831011340 72 146 0.0 0.0 0.00 0.14 0.14 89 1015.4
20260831010836 72 136 0.0 0.0 0.00 0.14 0.14 89 1015.5
20260831010336 72 152 0.0 0.0 0.00 0.14 0.14 89 1015.4
20260831005832 72 152 0.0 0.0 0.00 0.14 0.14 89 1015.2
20260831005327 72 144 0.0 0.0 0.00 0.14 0.14 89 1015.2
20260831004821 73 133 0.0 0.0 0.00 0.14 0.14 89 1015.0
20260831004318 73 126 0.0 1.0 0.00 0.14 0.14 88 1015.1
20260831003813 73 142 0.0 1.0 0.00 0.14 0.14 88 1015.1
20260831003309 73 141 0.0 0.0 0.00 0.14 0.14 88 1015.0
20260831002808 73 142 0.0 0.0 0.00 0.14 0.14 88 1014.9
20260831002306 73 142 0.0 0.0 0.00 0.14 0.14 88 1014.8
20260831001759 73 131 0.0 0.0 0.00 0.14 0.14 88 1014.9
20260831001253 73 143 0.0 0.0 0.00 0.14 0.14 87 1014.9
20260831000750 74 137 0.0 0.0 0.00 0.14 0.14 87 1014.8
20260831000245 74 135 0.0 0.0 0.00 0.14 0.14 86 1014.7
20260830235744 74 133 0.0 0.0 0.00 0.14 0.14 86 1014.7
20260830235238 74 138 0.0 1.0 0.00 0.14 0.14 86 1014.6
20260830234733 74 136 0.0 0.0 0.00 0.14 0.14 85 1014.5
20260830234230 74 136 0.0 0.0 0.00 0.14 0.14 84 1014.6
20260830233725 75 136 0.0 0.0 0.00 0.14 0.14 84 1014.5
20260830233220 75 128 0.0 0.0 0.00 0.14 0.14 83 1014.5
20260830232716 75 129 0.0 0.0 0.00 0.14 0.14 83 1014.7
20260830232211 75 138 0.0 0.0 0.00 0.14 0.14 83 1014.7
20260830231708 75 132 0.0 0.0 0.00 0.14 0.14 82 1014.7
20260830231207 75 138 0.0 0.0 0.00 0.14 0.14 82 1014.9
20260830230702 75 146 0.0 0.0 0.00 0.14 0.14 83 1014.8
20260830230157 75 129 0.0 0.0 0.00 0.14 0.14 83 1014.7
20260830225651 75 135 0.0 0.0 0.00 0.14 0.14 83 1014.6
20260830225146 75 136 0.0 0.0 0.00 0.14 0.14 83 1014.7
20260830224645 75 148 0.0 0.0 0.00 0.14 0.14 83 1014.8
20260830224141 75 128 0.0 0.0 0.00 0.14 0.14 83 1014.7
20260830223638 75 136 0.0 0.0 0.00 0.14 0.14 82 1014.4
20260830223137 75 131 0.0 0.0 0.00 0.14 0.14 83 1014.6
20260830222632 75 136 0.0 0.0 0.00 0.14 0.14 83 1014.7
20260830222128 75 139 0.0 0.0 0.00 0.14 0.14 83 1014.7
20260830221624 75 149 0.0 0.0 0.00 0.14 0.14 83 1014.8
20260830221119 75 135 0.0 0.0 0.00 0.14 0.14 83 1014.8
20260830220615 75 150 0.0 0.0 0.00 0.14 0.14 82 1014.7
20260830220113 75 142 0.0 0.0 0.00 0.14 0.14 82 1014.7
20260830215612 75 142 0.0 1.0 0.00 0.14 0.14 82 1014.7
20260830215107 75 148 0.0 0.0 0.00 0.14 0.14 81 1014.9
20260830214602 75 150 0.0 0.0 0.00 0.14 0.14 81 1014.5
20260830214057 75 143 0.0 0.0 0.00 0.14 0.14 81 1014.6
20260830213557 76 142 0.0 0.0 0.00 0.14 0.14 80 1014.5
20260830213053 76 148 0.0 0.0 0.00 0.14 0.14 80 1014.7
20260830212549 76 146 0.0 1.0 0.00 0.14 0.14 80 1014.6
20260830212048 76 151 0.0 0.0 0.00 0.14 0.14 79 1014.5
20260830211544 76 151 0.0 0.0 0.00 0.14 0.14 80 1014.5
20260830211043 76 151 0.0 0.0 0.00 0.14 0.14 78 1014.5
20260830210538 77 151 0.0 0.0 0.00 0.14 0.14 79 1014.5
20260830210037 77 151 0.0 0.0 0.00 0.14 0.14 78 1014.4
20260830205535 77 150 0.0 0.0 0.00 0.14 0.14 79 1014.5
20260830205031 77 150 0.0 0.0 0.00 0.14 0.14 79 1014.6
20260830204530 77 150 0.0 0.0 0.00 0.14 0.14 78 1014.6
20260830204030 77 154 0.0 0.0 0.00 0.14 0.14 78 1014.5
20260830203526 77 153 0.0 1.0 0.00 0.14 0.14 77 1014.6
20260830203021 77 151 0.0 0.0 0.00 0.14 0.14 77 1014.5
20260830202515 77 135 0.0 0.0 0.00 0.14 0.14 77 1014.5
20260830202011 78 142 1.0 2.0 0.00 0.14 0.14 76 1014.7
20260830201510 78 147 0.0 0.0 0.00 0.14 0.14 74 1014.5
20260830201006 78 147 0.0 0.0 0.00 0.14 0.14 73 1014.3
20260830200501 79 147 0.0 0.0 0.00 0.14 0.14 73 1014.3
20260830200000 79 147 0.0 0.0 0.00 0.14 0.14 72 1014.8
20260830195455 79 151 0.0 0.0 0.00 0.14 0.14 72 1014.9
20260830194953 80 138 1.0 1.0 0.00 0.14 0.14 71 1015.1
20260830194452 80 155 0.0 0.0 0.00 0.14 0.14 70 1014.9